DL1NER Weather Reports


time (UTC)temp
F
wind
direction
speed
knots
gust
knots
rain 1hr
in
rain 24hr
in
rain mn
in
humidity
%
barometer
mb
20260506233012 52 225 2.6 6.1 0.01 0.02 0.02 90 1008.7
20260506232012 52 200 1.7 6.1 0.01 0.02 0.02 90 1008.8
20260506231012 52 229 1.7 5.2 0.01 0.02 0.02 89 1008.8
20260506230012 52 195 1.7 5.2 0.01 0.02 0.02 89 1008.7
20260506225012 53 181 2.6 6.1 0.00 0.01 0.01 89 1008.5
20260506224012 53 196 2.6 6.1 0.00 0.01 0.01 89 1008.4
20260506223012 53 237 2.6 8.7 0.00 0.01 0.01 89 1008.3
20260506222012 53 237 1.7 5.2 0.00 0.01 0.01 89 1008.2
20260506221012 53 234 0.9 5.2 0.00 0.01 0.01 89 1008.0
20260506220012 53 219 1.7 7.0 0.00 0.01 0.01 89 1008.0
20260506215011 53 240 2.6 7.8 0.00 0.07 0.07 89 1008.0
20260506214012 53 240 1.7 9.6 0.00 0.07 0.07 89 1008.1
20260506213012 53 205 2.6 7.8 0.00 0.07 0.07 88 1008.1
20260506212011 53 275 2.6 7.0 0.00 0.07 0.07 89 1008.1
20260506211012 54 238 1.7 9.6 0.00 0.07 0.07 88 1008.0
20260506210012 54 246 2.6 7.8 0.00 0.07 0.07 89 1008.0
20260506205011 54 194 0.9 4.3 0.00 0.07 0.07 89 1007.8
20260506204011 54 217 0.9 3.5 0.00 0.07 0.07 88 1007.7
20260506203011 54 224 0.9 3.5 0.00 0.07 0.07 87 1007.6
20260506202011 54 238 0.9 4.3 0.00 0.07 0.07 87 1007.6
20260506201011 54 238 0.9 2.6 0.01 0.07 0.07 86 1007.6
20260506200011 54 211 0.9 3.5 0.01 0.07 0.07 84 1007.3
20260506195012 54 211 1.7 4.3 0.02 0.07 0.07 83 1007.3
20260506194011 55 188 0.9 3.5 0.02 0.07 0.07 82 1007.2
20260506193011 55 217 1.7 4.3 0.05 0.07 0.07 82 1007.2
20260506192011 55 234 1.7 4.3 0.06 0.07 0.07 80 1007.0
20260506191011 56 228 0.9 3.5 0.06 0.06 0.06 79 1006.8
20260506190011 56 246 0.9 6.1 0.06 0.06 0.06 78 1006.7
20260506185011 56 209 0.9 2.6 0.06 0.06 0.06 76 1006.5
20260506184011 56 209 1.7 5.2 0.05 0.05 0.05 74 1006.5
20260506183011 57 235 3.5 7.0 0.02 0.02 0.02 71 1006.3
20260506182011 57 219 3.5 9.6 0.01 0.01 0.01 69 1006.3
20260506181011 57 234 2.6 8.7 0.00 0.00 0.00 70 1006.1
20260506180011 57 216 1.7 7.0 0.00 0.00 0.00 72 1005.9
20260506175011 57 237 1.7 4.3 0.00 0.00 0.00 71 1005.8
20260506174010 57 243 1.7 6.1 0.00 0.00 0.00 70 1005.6
20260506173011 58 269 2.6 3.5 0.00 0.00 0.00 69 1005.4
20260506172011 58 169 0.9 3.5 0.00 0.00 0.00 67 1005.2
20260506171010 58 103 0.9 3.5 0.00 0.00 0.00 63 1005.3
20260506170011 59 123 2.6 7.0 0.00 0.00 0.00 63 1005.2
20260506165010 59 117 2.6 5.2 0.00 0.00 0.00 65 1005.2
20260506164012 59 115 0.9 3.5 0.00 0.00 0.00 65 1005.2
20260506163011 60 115 2.6 8.7 0.00 0.00 0.00 65 1005.4
20260506162010 61 117 2.6 6.1 0.00 0.00 0.00 63 1005.3
20260506161011 61 92 1.7 3.5 0.00 0.00 0.00 63 1005.2
20260506160010 62 92 0.9 3.5 0.00 0.00 0.00 61 1005.1
20260506155010 63 92 2.6 6.1 0.00 0.00 0.00 58 1005.0
20260506154010 64 105 2.6 7.0 0.00 0.00 0.00 56 1005.1
20260506153010 65 82 1.7 7.8 0.00 0.00 0.00 56 1005.2
20260506152011 65 302 1.7 7.0 0.00 0.00 0.00 56 1005.1
20260506151010 65 279 2.6 7.0 0.00 0.00 0.00 55 1004.9
20260506150011 66 261 3.5 8.7 0.00 0.00 0.00 55 1004.9
20260506145010 66 238 4.3 7.8 0.00 0.00 0.00 54 1004.9
20260506144011 66 258 4.3 7.8 0.00 0.00 0.00 53 1004.8
20260506143009 67 267 3.5 7.8 0.00 0.00 0.00 53 1004.8
20260506142011 67 256 2.6 7.8 0.00 0.00 0.00 52 1004.8
20260506141010 67 256 2.6 7.8 0.00 0.00 0.00 52 1004.8
20260506140009 67 150 0.9 2.6 0.00 0.00 0.00 54 1004.8
20260506135009 67 238 2.6 6.1 0.00 0.00 0.00 53 1004.7
20260506134010 67 238 2.6 6.1 0.00 0.00 0.00 53 1004.7
20260506133011 67 240 1.7 6.1 0.00 0.00 0.00 54 1004.8
20260506132010 67 245 1.7 6.1 0.00 0.00 0.00 52 1004.9
20260506131009 68 261 1.7 4.3 0.00 0.00 0.00 53 1005.0
20260506130009 67 251 1.7 5.2 0.00 0.00 0.00 52 1005.3
20260506125010 67 251 1.7 5.2 0.00 0.00 0.00 52 1005.3
20260506124009 67 206 1.7 7.0 0.00 0.00 0.00 52 1005.6
20260506122009 67 194 1.7 7.0 0.00 0.00 0.00 54 1005.6
20260506121014 67 194 1.7 7.0 0.00 0.00 0.00 54 1005.6
20260506120014 67 196 1.7 6.1 0.00 0.00 0.00 53 1005.6
20260506115014 67 223 2.6 7.8 0.00 0.00 0.00 53 1005.7
20260506114014 67 155 1.7 5.2 0.00 0.00 0.00 53 1005.7
20260506113014 67 227 2.6 9.6 0.00 0.00 0.00 58 1005.8
20260506112013 67 136 3.5 7.0 0.00 0.00 0.00 61 1005.8
20260506111014 65 178 2.6 6.1 0.00 0.00 0.00 60 1005.9
20260506110014 66 111 1.7 6.1 0.00 0.00 0.00 63 1005.9
20260506105013 65 147 1.7 5.2 0.00 0.00 0.00 64 1006.0
20260506104013 65 101 2.6 7.8 0.00 0.00 0.00 60 1006.1
20260506103013 65 264 1.7 5.2 0.00 0.00 0.00 66 1006.1
20260506102013 66 206 0.9 4.3 0.00 0.00 0.00 63 1006.1
20260506101013 65 184 1.7 6.1 0.00 0.00 0.00 63 1006.2
20260506100013 65 188 0.9 3.5 0.00 0.00 0.00 67 1006.2
20260506095013 65 140 2.6 6.1 0.00 0.00 0.00 68 1006.2
20260506094013 64 249 3.5 6.1 0.00 0.00 0.00 67 1006.2
20260506093013 62 194 2.6 7.0 0.00 0.00 0.00 68 1006.2
20260506092013 62 227 2.6 6.1 0.00 0.00 0.00 73 1006.2
20260506091013 62 249 2.6 7.0 0.00 0.00 0.00 70 1006.3
20260506090013 62 228 2.6 8.7 0.00 0.00 0.00 69 1006.3
20260506085013 63 221 2.6 6.1 0.00 0.00 0.00 72 1006.4
20260506084013 63 185 2.6 6.1 0.00 0.00 0.00 72 1006.4
20260506083013 64 231 1.7 7.0 0.00 0.00 0.00 69 1006.3
20260506082014 64 127 2.6 8.7 0.00 0.00 0.00 69 1006.4
20260506081013 62 163 1.7 7.0 0.00 0.00 0.00 75 1006.4
20260506073013 58 186 1.7 6.1 0.00 0.00 0.00 81 1006.3
20260506072013 58 190 0.9 4.3 0.00 0.00 0.00 81 1006.2
20260506071012 58 183 1.7 5.2 0.00 0.00 0.00 81 1006.2
20260506062012 53 120 0.9 5.2 0.00 0.00 0.00 91 1006.3
20260506061012 53 111 0.0 3.5 0.00 0.00 0.00 92 1006.2
20260506051012 50 155 2.6 5.2 0.00 0.00 0.00 92 1006.7
20260506045012 49 164 2.6 4.3 0.00 0.00 0.00 92 1006.9
20260506044012 49 165 1.7 3.5 0.00 0.00 0.00 92 1006.8
20260506043012 49 165 1.7 3.5 0.00 0.00 0.00 91 1006.7
20260506042012 49 165 0.9 3.5 0.00 0.00 0.00 91 1006.6
20260506041012 49 165 2.6 4.3 0.00 0.00 0.00 91 1006.6
20260506040012 49 167 0.9 3.5 0.00 0.00 0.00 91 1006.6
20260506035012 49 168 1.7 4.3 0.00 0.00 0.00 91 1006.5
20260506034012 49 171 0.0 3.5 0.00 0.00 0.00 91 1006.5
20260506033012 49 174 0.0 1.7 0.00 0.00 0.00 91 1006.3
20260506032011 49 174 0.0 0.0 0.00 0.00 0.00 91 1006.4
20260506031012 50 174 0.0 0.0 0.00 0.00 0.00 90 1006.4
20260506030011 50 174 0.0 0.9 0.00 0.00 0.00 90 1006.5
20260506025012 50 174 0.0 1.7 0.00 0.00 0.00 90 1006.5
20260506024011 51 174 0.0 4.3 0.00 0.00 0.00 90 1006.6
20260506023011 51 174 0.0 2.6 0.00 0.00 0.00 90 1006.6
20260506022011 51 174 0.0 2.6 0.00 0.00 0.00 90 1006.7
20260506021011 52 174 0.9 2.6 0.00 0.00 0.00 90 1006.6
20260506020011 52 204 0.0 0.0 0.00 0.00 0.00 90 1006.6
20260506015011 52 204 0.0 0.9 0.00 0.00 0.00 91 1006.4
20260506014011 52 204 0.9 1.7 0.00 0.00 0.00 91 1006.4
20260506013011 52 204 0.0 2.6 0.00 0.00 0.00 91 1006.5
20260506012011 52 204 0.9 4.3 0.00 0.00 0.00 91 1006.7
20260506011011 52 203 0.9 3.5 0.00 0.00 0.00 91 1006.7
20260506010011 52 201 0.0 3.5 0.00 0.00 0.00 90 1006.7
20260506005011 52 202 0.9 3.5 0.00 0.00 0.00 90 1006.8
20260506004011 52 211 0.9 3.5 0.00 0.00 0.00 90 1006.7
20260506003011 52 207 0.0 1.7 0.00 0.00 0.00 90 1006.7
20260506002011 52 207 0.9 3.5 0.00 0.00 0.00 90 1006.8
20260506001011 53 207 1.7 4.3 0.00 0.00 0.00 90 1006.9
20260506000011 53 196 2.6 5.2 0.00 0.00 0.00 90 1007.0
20260505235011 53 200 0.9 3.5 0.00 0.00 0.00 90 1007.1
20260505234011 53 195 1.7 5.2 0.00 0.00 0.00 90 1007.2